Wind_Speed
20 20 20 21 22 23 24 25 26 28 29 30 30 31 33 35 36 35 35 37 39 40 42 43 45 46 46 47 48 49 50 51 53 54 55 57 58 59 59 60 62 63 63 64
21 22 23 24 25 25 26 27 28 29 31 32 31 31 33 34 35 35 36 37 39 40 42 42 43 44 44 45 46 47 48 49 50 52 53 54 56 57 58 59 61 62 63 64
24 24 25 26 26 27 28 29 30 31 32 33 34 33 33 33 34 35 36 38 40 41 42 41 43 43 43 44 45 46 47 48 48 49 50 52 53 55 56 57 59 61 62 63
27 27 27 27 28 29 30 30 31 32 33 34 34 35 33 34 34 36 37 39 41 41 42 42 42 42 42 44 45 45 46 46 46 46 47 50 50 52 54 55 56 58 60 62
29 29 29 29 30 31 32 33 33 34 35 35 35 37 35 35 36 37 39 40 41 42 42 42 42 42 42 44 44 44 44 44 44 45 47 48 49 50 52 54 55 56 58 60
32 32 31 31 32 33 34 35 35 36 36 36 35 37 37 37 37 38 40 41 42 42 42 42 43 43 43 43 43 43 41 42 43 44 46 47 47 49 50 52 53 54 56 57
33 33 33 33 33 34 35 36 37 38 38 38 37 38 37 38 39 40 41 42 43 43 43 43 43 44 44 44 43 41 41 41 43 44 45 45 47 48 48 49 52 53 55 57
36 36 35 35 34 35 35 36 37 39 40 40 39 39 39 39 40 42 43 43 44 43 43 44 44 44 44 43 42 41 41 41 43 44 44 45 46 46 47 49 51 53 53 53
38 38 37 37 36 36 36 36 37 39 41 41 41 41 40 41 42 43 44 44 44 44 44 45 45 44 44 43 42 41 42 43 43 43 44 45 46 46 46 47 49 51 52 52
39 40 39 39 38 38 38 38 38 38 41 43 44 42 42 42 43 44 45 45 45 46 46 46 45 44 44 43 43 43 44 45 44 43 43 44 44 44 44 45 46 49 50 51
40 41 41 40 39 39 38 38 39 40 41 43 45 43 43 44 45 45 46 46 46 47 47 46 45 45 44 43 43 43 44 44 44 43 42 41 42 43 42 42 43 45 47 48
41 42 42 41 40 40 39 39 40 41 42 43 46 45 43 44 45 46 46 47 47 47 48 47 45 44 44 42 42 42 42 43 42 40 40 40 39 39 40 40 40 41 43 45
41 42 42 42 42 41 40 40 40 42 43 44 45 46 44 44 45 46 47 47 47 47 48 47 46 45 43 42 41 41 41 41 40 38 38 37 36 36 36 36 37 39 41 41
42 42 42 42 42 42 41 40 41 42 44 45 45 45 44 45 46 46 47 47 48 48 47 47 47 46 44 42 41 40 39 38 37 36 36 35 33 33 34 34 35 36 38 39
43 44 43 42 42 42 42 41 42 43 44 46 45 45 44 45 46 47 47 48 48 48 47 47 46 45 43 42 40 39 38 37 36 36 34 34 33 32 32 31 31 32 35 36
44 44 44 43 42 43 43 42 43 44 44 45 46 45 44 46 47 47 48 48 48 47 47 46 45 44 42 41 39 38 38 36 36 35 33 32 30 30 29 29 29 31 33 34
44 44 44 44 43 45 45 42 43 44 44 45 46 45 45 46 47 48 48 48 47 47 46 45 44 42 40 39 38 37 36 35 35 34 32 30 28 28 27 27 28 29 31 32
45 45 46 46 46 47 45 43 44 44 44 45 45 45 46 46 47 47 47 47 47 46 44 43 42 40 39 37 36 35 35 34 34 33 31 29 27 27 26 26 26 27 29 30
45 45 46 47 48 49 45 43 43 44 44 44 45 45 45 46 46 45 46 46 45 44 43 41 41 39 37 35 34 34 34 34 33 31 29 27 27 27 25 24 24 25 27 29
43 43 44 45 46 47 44 43 44 46 46 44 45 45 46 46 46 44 44 45 43 43 41 40 39 37 35 34 33 33 33 33 32 29 28 27 27 26 24 23 23 23 24 26
42 43 44 44 46 46 43 42 43 45 45 45 45 45 46 46 45 44 44 43 42 41 40 39 37 36 34 33 32 32 32 31 30 28 28 26 25 23 22 22 22 22 23 24
43 44 44 44 45 44 41 42 43 44 44 44 44 44 44 43 43 42 41 41 40 39 38 37 35 34 33 32 31 31 31 30 28 27 25 24 23 22 21 21 21 21 21 23
42 42 43 44 43 42 42 43 43 43 43 43 43 42 42 41 41 40 40 39 39 38 37 36 34 33 32 31 30 30 29 28 27 26 24 22 20 20 19 20 21 20 20 22
40 41 42 42 40 40 41 41 41 42 42 42 42 41 40 40 39 39 39 39 38 37 36 34 33 32 31 30 29 28 27 27 26 23 22 21 19 18 18 20 21 21 22 23
40 41 41 42 40 41 40 41 41 42 42 42 42 41 40 40 39 38 38 38 37 35 34 33 31 30 29 29 28 27 26 25 23 21 20 19 18 17 17 18 21 21 22 23
39 40 41 41 40 42 40 40 42 42 42 41 41 39 39 39 38 37 37 36 35 34 33 32 31 30 29 28 27 26 25 24 22 20 18 18 18 17 17 17 19 22 22 24
Wind_Direction
285 286 286 286 286 289 290 291 291 291 292 294 296 297 297 298 298 298 297 296 295 294 293 291 289 286 285 283 281 279 277 275 271 266 260 258 256 255 255 254 254 253 252 250
284 287 288 288 289 290 290 292 293 293 293 295 297 298 298 298 298 299 299 299 298 296 296 293 292 291 287 285 283 281 280 278 274 269 263 259 258 256 255 255 254 252 251 250
286 289 287 287 289 291 292 293 294 295 295 296 297 298 299 299 299 300 300 301 300 300 299 296 294 293 289 287 285 283 282 280 276 272 266 261 259 258 256 256 255 253 251 249
286 288 289 289 289 291 293 294 295 296 297 299 299 299 300 301 301 301 301 301 302 302 300 298 297 295 293 290 286 284 284 281 277 274 270 264 261 259 258 257 255 252 250 248
285 287 288 289 290 291 292 294 296 297 298 299 300 300 301 303 303 303 303 303 303 303 302 299 299 297 295 292 289 286 284 281 278 276 273 269 264 261 259 257 255 253 250 248
284 286 287 289 289 290 292 294 295 295 297 298 300 301 303 305 306 305 305 305 305 304 302 300 299 298 297 294 291 288 284 282 280 277 274 271 268 264 260 257 255 253 250 248
282 284 286 288 289 290 292 294 295 295 296 298 300 301 304 306 307 307 307 307 306 306 304 302 301 300 299 296 291 288 285 282 282 280 276 273 273 267 261 258 256 254 252 249
282 282 284 286 287 289 290 292 293 294 295 297 299 301 305 307 308 308 309 308 307 307 304 302 302 301 300 297 293 290 287 285 284 281 277 276 276 270 265 262 259 255 252 250
281 282 283 284 285 287 289 289 291 291 293 294 297 300 303 306 307 308 309 309 308 307 304 303 302 301 300 298 296 293 291 288 287 283 280 278 276 272 267 264 259 255 252 250
279 280 281 282 283 285 286 288 289 290 293 295 297 300 304 305 307 308 308 308 308 307 306 305 303 301 300 298 296 296 295 292 289 286 284 281 277 273 269 266 260 254 250 248
277 278 279 281 282 284 285 286 287 288 291 294 296 300 303 305 306 307 307 307 307 308 307 305 302 301 300 298 296 296 296 295 293 289 286 284 280 275 270 266 259 253 249 246
275 276 277 279 280 281 283 284 286 288 290 292 294 298 301 303 305 305 305 305 307 308 307 305 302 301 300 299 297 296 296 296 294 291 288 285 283 278 272 266 260 253 248 245
275 276 277 278 279 280 281 283 284 286 288 291 294 298 300 302 303 303 304 304 306 307 306 305 303 302 301 299 298 296 296 295 294 292 288 286 283 278 273 266 261 255 247 243
271 273 275 277 279 280 281 282 284 286 288 290 293 296 298 300 301 302 303 304 305 306 305 305 304 303 302 300 299 298 296 295 294 292 288 285 283 278 273 269 263 255 246 242
269 271 273 274 275 277 279 281 283 285 288 290 293 294 297 298 299 301 302 303 304 304 305 305 304 304 303 301 299 297 297 295 294 293 289 285 282 277 273 267 262 253 245 240
269 271 272 272 273 275 276 279 283 285 288 291 292 294 296 297 298 300 302 303 304 304 304 304 303 303 303 302 298 295 295 296 295 293 290 286 281 277 272 263 257 251 244 239
267 269 271 272 273 275 276 280 283 285 287 289 292 294 295 296 298 300 302 303 304 305 305 304 304 303 302 300 298 295 295 296 296 293 288 284 280 277 270 261 256 250 242 236
265 267 269 271 273 274 279 280 282 283 285 288 291 292 294 296 298 300 301 303 304 305 305 303 302 301 301 300 297 295 296 296 295 293 287 281 277 277 272 264 255 248 243 237
264 267 270 272 274 276 278 281 283 284 285 288 291 292 293 295 297 299 301 302 304 304 303 302 301 301 299 298 296 295 295 296 296 293 287 280 278 277 273 266 255 248 243 236
264 266 269 273 276 278 280 281 282 283 285 288 290 292 294 296 297 299 300 301 302 301 300 299 299 299 299 298 295 294 294 295 295 292 288 283 281 276 269 260 253 246 237 229
264 265 268 272 276 278 280 281 282 284 288 289 291 293 295 296 297 299 300 300 300 299 298 299 298 297 298 298 296 295 293 293 292 291 288 284 282 275 264 255 250 243 233 225
267 268 270 272 275 278 279 279 281 285 287 289 291 292 294 295 297 298 299 299 300 299 299 299 298 296 297 297 296 295 293 291 291 291 287 283 276 268 258 249 244 237 231 225
268 270 271 272 275 277 278 280 282 285 286 288 290 292 294 295 296 297 298 299 300 300 300 299 297 297 298 297 296 294 291 289 289 286 284 282 276 268 257 244 235 231 230 226
267 268 270 272 274 276 277 278 281 283 285 287 290 291 292 294 294 296 298 298 299 300 300 299 297 296 297 296 295 295 292 289 288 284 281 278 275 266 255 241 234 231 230 226
268 270 271 272 273 275 276 278 281 283 285 287 288 289 290 292 293 295 297 298 298 298 298 297 297 296 296 295 294 293 293 291 287 281 278 276 270 260 251 242 234 229 227 223
267 270 271 272 272 274 276 279 281 283 285 287 287 287 288 290 292 294 296 297 297 296 296 296 295 295 295 294 292 291 292 290 286 280 276 272 266 258 247 238 232 228 223 219
Height
5733 5733 5732 5730 5729 5728 5727 5725 5724 5722 5719 5717 5715 5713 5709 5704 5700 5696 5692 5687 5683 5678 5673 5668 5663 5659 5655 5651 5648 5645 5643 5640 5638 5638 5639 5641 5643 5646 5649 5651 5653 5656 5660 5664
5728 5727 5726 5724 5722 5721 5719 5718 5716 5714 5711 5709 5707 5704 5700 5696 5691 5687 5682 5678 5673 5668 5662 5657 5651 5647 5642 5638 5634 5631 5628 5626 5623 5622 5622 5624 5626 5629 5631 5633 5635 5638 5642 5646
5720 5720 5718 5717 5715 5713 5712 5710 5708 5706 5703 5700 5698 5696 5692 5688 5683 5678 5673 5668 5663 5657 5652 5646 5641 5635 5630 5625 5621 5618 5615 5612 5609 5607 5606 5607 5610 5612 5614 5616 5618 5621 5624 5628
5713 5712 5711 5709 5707 5705 5704 5702 5699 5697 5694 5692 5689 5685 5684 5679 5674 5668 5663 5658 5652 5647 5641 5636 5630 5625 5619 5614 5609 5606 5602 5599 5596 5595 5594 5593 5594 5597 5599 5600 5601 5604 5607 5612
5705 5704 5703 5701 5700 5697 5695 5693 5691 5688 5685 5683 5680 5675 5674 5669 5664 5659 5653 5648 5642 5636 5630 5625 5620 5614 5609 5603 5598 5595 5591 5588 5585 5583 5581 5580 5580 5582 5583 5584 5586 5588 5591 5595
5697 5696 5695 5693 5691 5689 5687 5685 5682 5679 5676 5674 5671 5667 5663 5659 5654 5649 5643 5637 5631 5625 5619 5614 5609 5604 5598 5593 5589 5584 5580 5578 5575 5572 5569 5568 5567 5568 5569 5569 5571 5573 5576 5580
5689 5687 5686 5684 5682 5681 5678 5676 5673 5669 5667 5664 5661 5657 5655 5649 5644 5638 5632 5627 5620 5614 5609 5603 5598 5593 5588 5583 5578 5574 5570 5567 5564 5560 5558 5556 5555 5554 5555 5556 5557 5559 5561 5565
5678 5678 5677 5675 5674 5672 5669 5667 5665 5660 5657 5654 5651 5647 5646 5640 5634 5627 5622 5616 5609 5604 5598 5592 5587 5582 5576 5571 5567 5563 5559 5556 5552 5548 5545 5543 5541 5540 5541 5541 5542 5544 5546 5549
5667 5667 5667 5665 5664 5662 5660 5658 5655 5651 5646 5644 5641 5639 5636 5630 5624 5618 5612 5606 5599 5593 5588 5582 5576 5571 5565 5560 5556 5552 5548 5544 5540 5536 5533 5530 5528 5526 5526 5526 5526 5528 5531 5534
5657 5656 5656 5654 5653 5652 5650 5648 5645 5641 5636 5632 5631 5629 5626 5620 5614 5609 5602 5596 5589 5583 5577 5572 5566 5560 5555 5550 5546 5541 5537 5532 5528 5524 5520 5517 5515 5513 5512 5511 5511 5513 5515 5519
5646 5645 5645 5644 5643 5642 5640 5638 5634 5630 5627 5623 5619 5622 5616 5610 5604 5598 5592 5585 5579 5573 5567 5561 5555 5550 5544 5539 5535 5530 5525 5521 5516 5512 5509 5505 5502 5499 5498 5497 5497 5499 5502 5505
5634 5633 5633 5633 5632 5630 5628 5627 5624 5621 5617 5612 5608 5612 5606 5600 5593 5587 5581 5575 5569 5563 5556 5550 5545 5539 5534 5529 5524 5519 5514 5509 5504 5500 5497 5493 5489 5487 5485 5485 5485 5486 5489 5493
5622 5621 5621 5620 5621 5620 5617 5615 5613 5609 5606 5602 5598 5601 5595 5590 5583 5577 5571 5565 5559 5553 5546 5540 5534 5529 5524 5519 5514 5509 5503 5498 5493 5489 5485 5482 5478 5476 5474 5473 5473 5474 5477 5481
5609 5609 5610 5610 5607 5606 5605 5604 5601 5597 5594 5591 5589 5587 5585 5578 5572 5567 5561 5554 5548 5542 5536 5530 5524 5518 5513 5508 5503 5498 5493 5488 5483 5479 5475 5472 5469 5466 5464 5463 5463 5464 5467 5471
5596 5596 5596 5596 5596 5594 5593 5592 5590 5586 5583 5580 5578 5575 5573 5567 5561 5556 5550 5544 5538 5532 5526 5520 5513 5507 5502 5497 5492 5488 5483 5478 5473 5469 5466 5462 5460 5457 5455 5454 5454 5455 5457 5461
5583 5584 5584 5584 5584 5582 5581 5581 5579 5575 5572 5568 5565 5563 5561 5555 5550 5544 5539 5533 5527 5521 5516 5510 5504 5498 5492 5487 5482 5478 5473 5469 5464 5460 5456 5453 5451 5449 5447 5446 5446 5446 5449 5452
5572 5572 5571 5571 5572 5568 5569 5572 5568 5565 5561 5557 5553 5552 5548 5543 5539 5533 5528 5522 5516 5511 5505 5499 5494 5488 5483 5477 5472 5468 5464 5459 5455 5451 5448 5445 5443 5441 5439 5438 5437 5438 5441 5444
5560 5559 5557 5557 5558 5555 5561 5559 5556 5553 5550 5546 5543 5540 5536 5531 5527 5522 5517 5511 5506 5500 5495 5489 5484 5479 5474 5468 5463 5459 5455 5451 5447 5443 5440 5438 5435 5433 5432 5430 5430 5431 5434 5437
5547 5547 5545 5544 5543 5543 5548 5547 5544 5539 5538 5536 5531 5528 5524 5520 5516 5513 5507 5500 5495 5490 5484 5479 5474 5469 5465 5460 5455 5451 5447 5443 5439 5435 5432 5430 5428 5426 5425 5424 5424 5425 5427 5430
5535 5534 5534 5532 5530 5531 5537 5535 5530 5527 5525 5525 5520 5516 5512 5508 5504 5502 5497 5490 5485 5480 5474 5469 5465 5460 5456 5452 5447 5443 5439 5435 5431 5428 5425 5423 5421 5420 5419 5419 5419 5420 5421 5425
5522 5521 5521 5520 5517 5519 5524 5521 5517 5516 5514 5512 5508 5504 5501 5496 5492 5489 5485 5480 5474 5470 5465 5460 5456 5451 5447 5443 5439 5435 5431 5428 5424 5421 5418 5416 5414 5413 5413 5413 5414 5415 5417 5420
5509 5509 5509 5508 5506 5511 5510 5508 5506 5504 5501 5498 5495 5492 5489 5485 5482 5478 5473 5469 5464 5459 5455 5450 5446 5443 5439 5434 5431 5427 5424 5420 5417 5415 5412 5411 5409 5408 5408 5409 5410 5411 5413 5417
5497 5498 5497 5497 5499 5498 5496 5495 5493 5491 5489 5487 5484 5481 5478 5474 5471 5467 5463 5459 5454 5450 5445 5441 5437 5434 5430 5426 5423 5419 5416 5413 5411 5408 5406 5404 5403 5403 5404 5405 5406 5408 5411 5414
5486 5485 5485 5485 5487 5485 5484 5482 5480 5479 5477 5475 5472 5470 5466 5463 5460 5457 5453 5449 5445 5440 5436 5432 5429 5425 5422 5418 5415 5412 5409 5407 5404 5402 5400 5399 5398 5398 5399 5401 5403 5405 5408 5411
5474 5473 5472 5473 5474 5472 5472 5470 5469 5467 5465 5463 5461 5458 5455 5452 5449 5446 5443 5439 5435 5431 5427 5424 5420 5417 5414 5410 5407 5405 5402 5400 5398 5396 5395 5394 5394 5394 5395 5396 5398 5401 5405 5408
5463 5462 5461 5461 5462 5459 5460 5459 5457 5456 5454 5452 5450 5447 5445 5442 5439 5436 5433 5430 5426 5422 5419 5415 5412 5409 5406 5403 5400 5398 5395 5393 5392 5391 5390 5390 5390 5390 5390 5392 5394 5397 5401 5405